Location: Albany
(35.0000°S, 118.0000°E)
Time: 07:18:58
(UTC-04:00)

Transit 2A - Visible Passes

Search period start: 25 July 2014 00:00
Search period end: 04 August 2014 00:00
Orbit: 603 x 960 km, 66.7° (Epoch: 24 July)

Date Brightness Start Highest point End Pass type
(mag) Time Alt. Az. Time Alt. Az. Time Alt. Az.
30 Jul 8.6 07:38:56 10° S 07:39:13 11° S 07:39:13 11° S visible
31 Jul 8.4 07:06:19 10° SSE 07:07:02 11° SSE 07:07:02 11° SSE visible
31 Jul 9.0 08:47:31 10° SSW 08:47:36 10° SSW 08:47:36 10° SSW visible
01 Aug 8.4 08:14:06 10° SSW 08:15:30 17° SSW 08:15:30 17° SSW visible
02 Aug 7.8 07:40:48 10° SSW 07:43:31 24° S 07:43:31 24° S visible
03 Aug 7.4 07:07:37 10° S 07:11:39 26° SSE 07:11:39 26° SSE visible
03 Aug 8.6 08:50:40 10° SW 08:52:14 18° SW 08:52:14 18° SW visible
